User: anonymous   Login
Location: Oberwangen
(47.4286°N, 8.9679°E)
Time: 08:44:21
(UTC+00:00)
Language:

Cosmos 1703 - Orbit

View from above orbital plane
View from above orbital plane
View from above satellite
View from above satellite

Ground track
Ground track

The orbit data is extracted from the following two-line orbital elements,

1 16262U 85108A   21265.44113901  .00001351  00000-0  77281-4 0  9997
2 16262  82.4809 157.8002 0010366 322.5452  37.5055 15.11835142953881
Epoch (UTC): 22 September 2021 10:35:14
Eccentricity: 0.0010366
inclination: 82.4809°
perigee height: 523 km
apogee height: 538 km
right ascension of ascending node: 157.8002°
argument of perigee: 322.5452°
revolutions per day: 15.11835142
mean anomaly at epoch: 37.5055°
orbit number at epoch: 95388

The dashed part of the orbit path shows where the satellite is in the earth's shadow,  

DLR